Year,Month,Day,Hour,Minute,Value (Times are PST for temperature in C)
2014,06,23,00,00,9.60
2014,06,23,00,01,9.60
2014,06,23,00,02,9.60
2014,06,23,00,03,9.60
2014,06,23,00,04,9.60
2014,06,23,00,05,9.60
2014,06,23,00,06,9.60
2014,06,23,00,07,9.50
2014,06,23,00,08,9.50
2014,06,23,00,09,9.50
2014,06,23,00,10,9.50
2014,06,23,00,11,9.50
2014,06,23,00,12,9.50
2014,06,23,00,13,9.50
2014,06,23,00,17,9.50
2014,06,23,00,18,9.50
2014,06,23,00,19,9.50
2014,06,23,00,20,9.40
2014,06,23,00,21,9.40
2014,06,23,00,22,9.40
2014,06,23,00,23,9.40
2014,06,23,00,24,9.40
2014,06,23,00,25,9.40
2014,06,23,00,26,9.40
2014,06,23,00,27,9.40
2014,06,23,00,28,9.40
2014,06,23,00,29,9.40
2014,06,23,00,30,9.40
2014,06,23,00,31,9.30
2014,06,23,00,32,9.30
2014,06,23,00,33,9.30
2014,06,23,00,34,9.30
2014,06,23,00,35,9.30
2014,06,23,00,36,9.30
2014,06,23,00,37,9.30
2014,06,23,00,38,9.30
2014,06,23,00,39,9.30
2014,06,23,00,40,9.30
2014,06,23,00,41,9.30
2014,06,23,00,42,9.30
2014,06,23,00,43,9.30
2014,06,23,00,44,9.30
2014,06,23,00,45,9.30
2014,06,23,00,46,9.30
2014,06,23,00,47,9.30
2014,06,23,00,48,9.30
2014,06,23,00,49,9.30
2014,06,23,00,50,9.40
2014,06,23,00,51,9.40
2014,06,23,00,52,9.40
2014,06,23,00,53,9.40
2014,06,23,00,54,9.40
2014,06,23,00,55,9.40
2014,06,23,00,56,9.40
2014,06,23,00,57,9.40
2014,06,23,00,58,9.40
2014,06,23,00,59,9.30
2014,06,23,01,00,9.30
2014,06,23,01,01,9.30
2014,06,23,01,02,9.30
2014,06,23,01,03,9.30
2014,06,23,01,04,9.30
2014,06,23,01,05,9.30
2014,06,23,01,06,9.20
2014,06,23,01,07,9.20
2014,06,23,01,08,9.20
2014,06,23,01,09,9.20
2014,06,23,01,10,9.20
2014,06,23,01,11,9.20
2014,06,23,01,12,9.20
2014,06,23,01,13,9.20
2014,06,23,01,14,9.20
2014,06,23,01,15,9.20
2014,06,23,01,16,9.20
2014,06,23,01,17,9.20
2014,06,23,01,18,9.20
2014,06,23,01,19,9.20
2014,06,23,01,20,9.20
2014,06,23,01,21,9.20
2014,06,23,01,22,9.20
2014,06,23,01,23,9.20
2014,06,23,01,24,9.20
2014,06,23,01,25,9.20
2014,06,23,01,26,9.20
2014,06,23,01,27,9.20
2014,06,23,01,28,9.20
2014,06,23,01,29,9.20
2014,06,23,01,30,9.20
2014,06,23,01,31,9.20
2014,06,23,01,32,9.20
2014,06,23,01,33,9.10
2014,06,23,01,34,9.10
2014,06,23,01,35,9.10
2014,06,23,01,36,9.10
2014,06,23,01,37,9.10
2014,06,23,01,38,9.10
2014,06,23,01,39,9.10
2014,06,23,01,40,9.10
2014,06,23,01,41,9.10
2014,06,23,01,42,9.10
2014,06,23,01,43,9.10
2014,06,23,01,44,9.10
2014,06,23,01,45,9.10
2014,06,23,01,46,9.10
2014,06,23,01,47,9.10
2014,06,23,01,48,9.00
2014,06,23,01,49,9.00
2014,06,23,01,50,9.00
2014,06,23,01,51,9.00
2014,06,23,01,52,9.00
2014,06,23,01,53,9.00
2014,06,23,01,54,8.90
2014,06,23,01,55,8.90
2014,06,23,01,56,8.90
2014,06,23,01,57,8.90
2014,06,23,01,58,8.90
2014,06,23,01,59,8.90
2014,06,23,02,00,8.90
2014,06,23,02,01,8.90
2014,06,23,02,02,8.90
2014,06,23,02,03,8.90
2014,06,23,02,04,8.90
2014,06,23,02,05,8.80
2014,06,23,02,06,8.80
2014,06,23,02,07,8.80
2014,06,23,02,08,8.80
2014,06,23,02,09,8.80
2014,06,23,02,10,8.80
2014,06,23,02,11,8.80
2014,06,23,02,12,8.80
2014,06,23,02,13,8.80
2014,06,23,02,14,8.80
2014,06,23,02,15,8.80
2014,06,23,02,16,8.80
2014,06,23,02,17,8.80
2014,06,23,02,18,8.80
2014,06,23,02,19,8.80
2014,06,23,02,20,8.80
2014,06,23,02,21,8.70
2014,06,23,02,22,8.70
2014,06,23,02,23,8.70
2014,06,23,02,24,8.70
2014,06,23,02,25,8.70
2014,06,23,02,26,8.70
2014,06,23,02,27,8.70
2014,06,23,02,28,8.70
2014,06,23,02,29,8.70
2014,06,23,02,30,8.70
2014,06,23,02,31,8.70
2014,06,23,02,32,8.70
2014,06,23,02,33,8.70
2014,06,23,02,34,8.70
2014,06,23,02,35,8.70
2014,06,23,02,36,8.70
2014,06,23,02,37,8.70
2014,06,23,02,38,8.70
2014,06,23,02,39,8.70
2014,06,23,02,40,8.70
2014,06,23,02,41,8.70
2014,06,23,02,42,8.70
2014,06,23,02,43,8.70
2014,06,23,02,44,8.70
2014,06,23,02,45,8.70
2014,06,23,02,46,8.60
2014,06,23,02,47,8.60
2014,06,23,02,48,8.60
2014,06,23,02,49,8.60
2014,06,23,02,50,8.60
2014,06,23,02,51,8.70
2014,06,23,02,52,8.70
2014,06,23,02,53,8.70
2014,06,23,02,54,8.70
2014,06,23,02,55,8.70
2014,06,23,02,56,8.70
2014,06,23,02,57,8.70
2014,06,23,02,58,8.70
2014,06,23,02,59,8.70
2014,06,23,03,00,8.70
2014,06,23,03,01,8.70
2014,06,23,03,02,8.60
2014,06,23,03,03,8.60
2014,06,23,03,04,8.60
2014,06,23,03,05,8.60
2014,06,23,03,06,8.60
2014,06,23,03,07,8.60
2014,06,23,03,08,8.60
2014,06,23,03,09,8.60
2014,06,23,03,10,8.60
2014,06,23,03,11,8.60
2014,06,23,03,12,8.60
2014,06,23,03,13,8.60
2014,06,23,03,14,8.60
2014,06,23,03,15,8.60
2014,06,23,03,16,8.60
2014,06,23,03,17,8.70
2014,06,23,03,18,8.70
2014,06,23,03,19,8.70
2014,06,23,03,20,8.70
2014,06,23,03,21,8.70
2014,06,23,03,22,8.70
2014,06,23,03,23,8.70
2014,06,23,03,24,8.70
2014,06,23,03,25,8.70
2014,06,23,03,26,8.70
2014,06,23,03,27,8.70
2014,06,23,03,28,8.70
2014,06,23,03,29,8.70
2014,06,23,03,30,8.70
2014,06,23,03,31,8.70
2014,06,23,03,32,8.70
2014,06,23,03,33,8.70
2014,06,23,03,34,8.70
2014,06,23,03,35,8.70
2014,06,23,03,36,8.70
2014,06,23,03,37,8.70
2014,06,23,03,38,8.70
2014,06,23,03,39,8.70
2014,06,23,03,40,8.70
2014,06,23,03,41,8.70
2014,06,23,03,42,8.70
2014,06,23,03,43,8.70
2014,06,23,03,44,8.70
2014,06,23,03,45,8.70
2014,06,23,03,46,8.70
2014,06,23,03,47,8.70
2014,06,23,03,48,8.80
2014,06,23,03,49,8.80
2014,06,23,03,50,8.80
2014,06,23,03,51,8.80
2014,06,23,03,52,8.80
2014,06,23,03,53,8.80
2014,06,23,03,54,8.80
2014,06,23,03,55,8.80
2014,06,23,03,56,8.90
2014,06,23,03,57,8.90
2014,06,23,03,58,8.90
2014,06,23,03,59,8.90
2014,06,23,04,00,8.90
2014,06,23,04,01,8.90
2014,06,23,04,02,8.90
2014,06,23,04,03,8.90
2014,06,23,04,04,8.90
2014,06,23,04,05,8.90
2014,06,23,04,06,8.90
2014,06,23,04,07,8.90
2014,06,23,04,08,8.90
2014,06,23,04,09,8.90
2014,06,23,04,10,8.90
2014,06,23,04,11,8.90
2014,06,23,04,12,8.90
2014,06,23,04,13,8.90
2014,06,23,04,14,9.00
2014,06,23,04,15,8.90
2014,06,23,04,16,9.00
2014,06,23,04,17,8.90
2014,06,23,04,18,8.90
2014,06,23,04,19,8.90
2014,06,23,04,20,9.00
2014,06,23,04,21,9.00
2014,06,23,04,22,9.00
2014,06,23,04,23,9.00
2014,06,23,04,24,9.00
2014,06,23,04,25,9.00
2014,06,23,04,26,9.00
2014,06,23,04,27,9.00
2014,06,23,04,28,9.00
2014,06,23,04,29,9.00
2014,06,23,04,30,9.00
2014,06,23,04,31,8.90
2014,06,23,04,32,8.90
2014,06,23,04,33,8.90
2014,06,23,04,34,8.90
2014,06,23,04,35,8.90
2014,06,23,04,36,8.90
2014,06,23,04,37,8.90
2014,06,23,04,38,8.90
2014,06,23,04,39,8.90
2014,06,23,04,40,8.90
2014,06,23,04,41,8.90
2014,06,23,04,42,8.90
2014,06,23,04,43,8.90
2014,06,23,04,44,8.90
2014,06,23,04,45,8.90
2014,06,23,04,46,8.90
2014,06,23,04,47,8.90
2014,06,23,04,48,8.90
2014,06,23,04,49,8.90
2014,06,23,04,50,8.90
2014,06,23,04,51,8.90
2014,06,23,04,52,8.90
2014,06,23,04,53,8.90
2014,06,23,04,54,8.90
2014,06,23,04,55,8.90
2014,06,23,04,56,8.90
2014,06,23,04,57,8.90
2014,06,23,04,58,8.90
2014,06,23,04,59,8.90
2014,06,23,05,00,8.90
2014,06,23,05,01,8.90
2014,06,23,05,02,8.90
2014,06,23,05,03,8.90
2014,06,23,05,04,9.00
2014,06,23,05,05,9.00
2014,06,23,05,06,9.00
2014,06,23,05,07,9.00
2014,06,23,05,08,9.00
2014,06,23,05,09,9.00
2014,06,23,05,10,9.00
2014,06,23,05,11,9.00
2014,06,23,05,12,9.00
2014,06,23,05,13,9.00
2014,06,23,05,14,9.00
2014,06,23,05,15,9.10
2014,06,23,05,16,9.10
2014,06,23,05,17,9.10
2014,06,23,05,18,9.10
2014,06,23,05,19,9.10
2014,06,23,05,20,9.10
2014,06,23,05,21,9.20
2014,06,23,05,22,9.20
2014,06,23,05,23,9.20
2014,06,23,05,24,9.20
2014,06,23,05,25,9.20
2014,06,23,05,26,9.20
2014,06,23,05,27,9.20
2014,06,23,05,28,9.20
2014,06,23,05,29,9.20
2014,06,23,05,30,9.20
2014,06,23,05,31,9.20
2014,06,23,05,32,9.20
2014,06,23,05,33,9.20
2014,06,23,05,34,9.20
2014,06,23,05,35,9.20
2014,06,23,05,36,9.20
2014,06,23,05,37,9.20
2014,06,23,05,38,9.20
2014,06,23,05,39,9.20
2014,06,23,05,40,9.20
2014,06,23,05,41,9.30
2014,06,23,05,42,9.30
2014,06,23,05,43,9.30
2014,06,23,05,44,9.30
2014,06,23,05,45,9.30
2014,06,23,05,46,9.30
2014,06,23,05,47,9.30
2014,06,23,05,48,9.30
2014,06,23,05,49,9.30
2014,06,23,05,50,9.30
2014,06,23,05,51,9.30
2014,06,23,05,52,9.30
2014,06,23,05,53,9.30
2014,06,23,05,54,9.30
2014,06,23,05,55,9.30
2014,06,23,05,56,9.30
2014,06,23,05,57,9.30
2014,06,23,05,58,9.30
2014,06,23,05,59,9.30
2014,06,23,06,00,9.30
2014,06,23,06,01,9.30
2014,06,23,06,02,9.30
2014,06,23,06,03,9.30
2014,06,23,06,04,9.30
2014,06,23,06,05,9.30
2014,06,23,06,06,9.30
2014,06,23,06,07,9.30
2014,06,23,06,08,9.30
2014,06,23,06,09,9.30
2014,06,23,06,10,9.30
2014,06,23,06,11,9.30
2014,06,23,06,12,9.30
2014,06,23,06,13,9.30
2014,06,23,06,14,9.30
2014,06,23,06,15,9.30
2014,06,23,06,16,9.30
2014,06,23,06,17,9.30
2014,06,23,06,18,9.30
2014,06,23,06,19,9.30
2014,06,23,06,20,9.30
2014,06,23,06,21,9.30
2014,06,23,06,22,9.30
2014,06,23,06,23,9.30
2014,06,23,06,24,9.30
2014,06,23,06,25,9.30
2014,06,23,06,26,9.40
2014,06,23,06,27,9.40
2014,06,23,06,28,9.40
2014,06,23,06,29,9.40
2014,06,23,06,30,9.40
2014,06,23,06,31,9.50
2014,06,23,06,32,9.50
2014,06,23,06,33,9.50
2014,06,23,06,34,9.60
2014,06,23,06,35,9.60
2014,06,23,06,36,9.60
2014,06,23,06,37,9.70
2014,06,23,06,38,9.70
2014,06,23,06,39,9.80
2014,06,23,06,40,9.80
2014,06,23,06,41,9.90
2014,06,23,06,42,9.90
2014,06,23,06,43,10.00
2014,06,23,06,44,10.00
2014,06,23,06,45,10.10
2014,06,23,06,46,10.10
2014,06,23,06,47,10.20
2014,06,23,06,48,10.20
2014,06,23,06,49,10.30
2014,06,23,06,50,10.30
2014,06,23,06,51,10.30
2014,06,23,06,52,10.30
2014,06,23,06,53,10.40
2014,06,23,06,54,10.40
2014,06,23,06,55,10.40
2014,06,23,06,56,10.40
2014,06,23,06,57,10.40
2014,06,23,06,58,10.50
2014,06,23,06,59,10.50
2014,06,23,07,00,10.60
2014,06,23,07,01,10.60
2014,06,23,07,02,10.60
2014,06,23,07,03,10.60
2014,06,23,07,04,10.60
2014,06,23,07,05,10.70
2014,06,23,07,06,10.70
2014,06,23,07,07,10.70
2014,06,23,07,08,10.70
2014,06,23,07,09,10.70
2014,06,23,07,10,10.70
2014,06,23,07,11,10.70
2014,06,23,07,12,10.70
2014,06,23,07,13,10.70
2014,06,23,07,14,10.70
2014,06,23,07,15,10.70
2014,06,23,07,16,10.80
2014,06,23,07,17,10.80
2014,06,23,07,18,10.80
2014,06,23,07,19,10.80
2014,06,23,07,20,10.80
2014,06,23,07,21,10.80
2014,06,23,07,22,10.90
2014,06,23,07,23,10.90
2014,06,23,07,24,10.90
2014,06,23,07,25,10.90
2014,06,23,07,26,11.00
2014,06,23,07,27,11.00
2014,06,23,07,28,11.00
2014,06,23,07,29,11.00
2014,06,23,07,30,11.00
2014,06,23,07,31,11.00
2014,06,23,07,32,11.00
2014,06,23,07,33,11.00
2014,06,23,07,34,11.00
2014,06,23,07,35,11.00
2014,06,23,07,36,11.00
2014,06,23,07,37,11.00
2014,06,23,07,38,11.00
2014,06,23,07,39,11.10
2014,06,23,07,40,11.10
2014,06,23,07,41,11.10
2014,06,23,07,42,11.10
2014,06,23,07,43,11.20
2014,06,23,07,44,11.20
2014,06,23,07,45,11.20
2014,06,23,07,46,11.20
2014,06,23,07,47,11.20
2014,06,23,07,48,11.20
2014,06,23,07,49,11.10
2014,06,23,07,50,11.10
2014,06,23,07,51,11.20
2014,06,23,07,52,11.20
2014,06,23,07,53,11.20
2014,06,23,07,54,11.20
2014,06,23,07,55,11.30
2014,06,23,07,56,11.30
2014,06,23,07,57,11.30
2014,06,23,07,58,11.40
2014,06,23,07,59,11.40
2014,06,23,08,00,11.40
2014,06,23,08,01,11.50
2014,06,23,08,02,11.50
2014,06,23,08,03,11.50
2014,06,23,08,04,11.60
2014,06,23,08,05,11.60
2014,06,23,08,06,11.60
2014,06,23,08,07,11.70
2014,06,23,08,08,11.80
2014,06,23,08,09,11.80
2014,06,23,08,10,11.90
2014,06,23,08,11,11.90
2014,06,23,08,12,11.90
2014,06,23,08,13,11.90
2014,06,23,08,14,11.90
2014,06,23,08,15,11.90
2014,06,23,08,16,12.00
2014,06,23,08,17,12.10
2014,06,23,08,18,12.10
2014,06,23,08,19,12.20
2014,06,23,08,20,12.30
2014,06,23,08,21,12.30
2014,06,23,08,22,12.30
2014,06,23,08,23,12.40
2014,06,23,08,24,12.40
2014,06,23,08,25,12.40
2014,06,23,08,26,12.50
2014,06,23,08,27,12.60
2014,06,23,08,28,12.60
2014,06,23,08,29,12.70
2014,06,23,08,30,12.80
2014,06,23,08,31,12.80
2014,06,23,08,32,12.90
2014,06,23,08,33,12.90
2014,06,23,08,34,12.90
2014,06,23,08,35,12.90
2014,06,23,08,36,12.90
2014,06,23,08,37,13.00
2014,06,23,08,38,13.00
2014,06,23,08,39,13.10
2014,06,23,08,40,13.20
2014,06,23,08,41,13.30
2014,06,23,08,42,13.30
2014,06,23,08,43,13.40
2014,06,23,08,44,13.40
2014,06,23,08,45,13.40
2014,06,23,08,46,13.30
2014,06,23,08,47,13.30
2014,06,23,08,48,13.30
2014,06,23,08,49,13.40
2014,06,23,08,50,13.40
2014,06,23,08,51,13.40
2014,06,23,08,52,13.40
2014,06,23,08,53,13.40
2014,06,23,08,54,13.50
2014,06,23,08,55,13.50
2014,06,23,08,56,13.50
2014,06,23,08,57,13.60
2014,06,23,08,58,13.60
2014,06,23,08,59,13.60
2014,06,23,09,00,13.70
2014,06,23,09,01,13.70
2014,06,23,09,02,13.70
2014,06,23,09,03,13.70
2014,06,23,09,04,13.60
2014,06,23,09,05,13.60
2014,06,23,09,06,13.60
2014,06,23,09,07,13.60
2014,06,23,09,08,13.60
2014,06,23,09,09,13.60
2014,06,23,09,10,13.50
2014,06,23,09,11,13.50
2014,06,23,09,12,13.50
2014,06,23,09,13,13.50
2014,06,23,09,14,13.50
2014,06,23,09,15,13.40
2014,06,23,09,16,13.40
2014,06,23,09,17,13.30
2014,06,23,09,18,13.30
2014,06,23,09,19,13.20
2014,06,23,09,20,13.30
2014,06,23,09,21,13.20
2014,06,23,09,22,13.20
2014,06,23,09,23,13.20
2014,06,23,09,24,13.20
2014,06,23,09,25,13.20
2014,06,23,09,26,13.10
2014,06,23,09,27,13.10
2014,06,23,09,28,13.10
2014,06,23,09,29,13.10
2014,06,23,09,30,13.20
2014,06,23,09,31,13.20
2014,06,23,09,32,13.30
2014,06,23,09,33,13.30
2014,06,23,09,34,13.30
2014,06,23,09,35,13.30
2014,06,23,09,36,13.30
2014,06,23,09,37,13.30
2014,06,23,09,38,13.30
2014,06,23,09,39,13.30
2014,06,23,09,40,13.30
2014,06,23,09,41,13.30
2014,06,23,09,42,13.30
2014,06,23,09,43,13.20
2014,06,23,09,44,13.20
2014,06,23,09,45,13.20
2014,06,23,09,46,13.20
2014,06,23,09,47,13.20
2014,06,23,09,48,13.30
2014,06,23,09,49,13.30
2014,06,23,09,50,13.30
2014,06,23,09,51,13.30
2014,06,23,09,52,13.30
2014,06,23,09,53,13.30
2014,06,23,09,54,13.30
2014,06,23,09,55,13.40
2014,06,23,09,56,13.50
2014,06,23,09,57,13.50
2014,06,23,09,58,13.60
2014,06,23,09,59,13.70
2014,06,23,10,00,13.80
2014,06,23,10,01,13.80
2014,06,23,10,02,13.80
2014,06,23,10,03,13.90
2014,06,23,10,04,14.00
2014,06,23,10,05,14.10
2014,06,23,10,06,14.20
2014,06,23,10,07,14.30
2014,06,23,10,08,14.30
2014,06,23,10,09,14.40
2014,06,23,10,10,14.50
2014,06,23,10,11,14.50
2014,06,23,10,12,14.50
2014,06,23,10,13,14.50
2014,06,23,10,14,14.50
2014,06,23,10,15,14.60
2014,06,23,10,16,14.60
2014,06,23,10,17,14.70
2014,06,23,10,18,14.70
2014,06,23,10,19,14.80
2014,06,23,10,20,14.80
2014,06,23,10,21,14.90
2014,06,23,10,22,14.90
2014,06,23,10,23,14.90
2014,06,23,10,24,14.90
2014,06,23,10,25,14.80
2014,06,23,10,26,14.80
2014,06,23,10,27,14.80
2014,06,23,10,28,14.80
2014,06,23,10,29,14.80
2014,06,23,10,30,14.60
2014,06,23,10,31,14.50
2014,06,23,10,32,14.50
2014,06,23,10,33,14.40
2014,06,23,10,34,14.40
2014,06,23,10,35,14.40
2014,06,23,10,36,14.40
2014,06,23,10,37,14.40
2014,06,23,10,38,14.50
2014,06,23,10,39,14.50
2014,06,23,10,40,14.60
2014,06,23,10,41,14.70
2014,06,23,10,42,14.80
2014,06,23,10,43,14.80
2014,06,23,10,44,14.90
2014,06,23,10,45,14.90
2014,06,23,10,46,14.90
2014,06,23,10,47,15.00
2014,06,23,10,48,15.10
2014,06,23,10,49,15.10
2014,06,23,10,50,15.20
2014,06,23,10,51,15.30
2014,06,23,10,52,15.20
2014,06,23,10,53,15.20
2014,06,23,10,54,15.20
2014,06,23,10,55,15.20
2014,06,23,10,56,15.10
2014,06,23,10,57,15.10
2014,06,23,10,58,15.00
2014,06,23,10,59,15.00
2014,06,23,11,00,15.00
2014,06,23,11,01,15.10
2014,06,23,11,02,15.10
2014,06,23,11,03,15.10
2014,06,23,11,04,15.10
2014,06,23,11,05,15.20
2014,06,23,11,06,15.20
2014,06,23,11,07,15.30
2014,06,23,11,08,15.30
2014,06,23,11,09,15.40
2014,06,23,11,10,15.30
2014,06,23,11,11,15.20
2014,06,23,11,12,15.20
2014,06,23,11,13,15.20
2014,06,23,11,14,15.20
2014,06,23,11,15,15.20
2014,06,23,11,16,15.20
2014,06,23,11,17,15.20
2014,06,23,11,18,15.30
2014,06,23,11,19,15.40
2014,06,23,11,20,15.40
2014,06,23,11,21,15.50
2014,06,23,11,22,15.50
2014,06,23,11,23,15.60
2014,06,23,11,24,15.60
2014,06,23,11,25,15.70
2014,06,23,11,26,15.60
2014,06,23,11,27,15.60
2014,06,23,11,28,15.60
2014,06,23,11,29,15.60
2014,06,23,11,30,15.60
2014,06,23,11,31,15.60
2014,06,23,11,32,15.60
2014,06,23,11,33,15.60
2014,06,23,11,34,15.50
2014,06,23,11,35,15.40
2014,06,23,11,36,15.40
2014,06,23,11,37,15.40
2014,06,23,11,38,15.40
2014,06,23,11,39,15.40
2014,06,23,11,40,15.50
2014,06,23,11,41,15.50
2014,06,23,11,42,15.60
2014,06,23,11,43,15.70
2014,06,23,11,44,15.80
2014,06,23,11,45,15.80
2014,06,23,11,46,15.90
2014,06,23,11,47,16.00
2014,06,23,11,48,16.00
2014,06,23,11,49,16.00
2014,06,23,11,50,15.90
2014,06,23,11,51,15.90
2014,06,23,11,52,15.80
2014,06,23,11,53,15.70
2014,06,23,11,54,15.70
2014,06,23,11,55,15.70
2014,06,23,11,56,15.70
2014,06,23,11,57,15.70
2014,06,23,11,58,15.70
2014,06,23,11,59,15.80
2014,06,23,12,00,15.80
2014,06,23,12,01,15.90
2014,06,23,12,02,15.90
2014,06,23,12,03,15.90
2014,06,23,12,04,15.80
2014,06,23,12,05,15.80
2014,06,23,12,06,15.80
2014,06,23,12,07,15.80
2014,06,23,12,08,15.80
2014,06,23,12,09,15.90
2014,06,23,12,10,15.90
2014,06,23,12,11,15.80
2014,06,23,12,12,15.80
2014,06,23,12,13,15.70
2014,06,23,12,14,15.70
2014,06,23,12,15,15.70
2014,06,23,12,16,15.70
2014,06,23,12,17,15.80
2014,06,23,12,18,15.80
2014,06,23,12,19,15.90
2014,06,23,12,20,15.90
2014,06,23,12,21,15.90
2014,06,23,12,22,15.90
2014,06,23,12,23,15.80
2014,06,23,12,24,15.80
2014,06,23,12,25,15.70
2014,06,23,12,26,15.80
2014,06,23,12,27,15.80
2014,06,23,12,28,15.90
2014,06,23,12,29,15.90
2014,06,23,12,30,15.90
2014,06,23,12,31,15.90
2014,06,23,12,32,15.90
2014,06,23,12,33,15.90
2014,06,23,12,34,15.80
2014,06,23,12,35,15.80
2014,06,23,12,36,15.80
2014,06,23,12,37,15.70
2014,06,23,12,38,15.70
2014,06,23,12,39,15.70
2014,06,23,12,40,15.60
2014,06,23,12,41,15.70
2014,06,23,12,42,15.70
2014,06,23,12,43,15.70
2014,06,23,12,44,15.70
2014,06,23,12,45,15.70
2014,06,23,12,46,15.70
2014,06,23,12,47,15.70
2014,06,23,12,48,15.70
2014,06,23,12,49,15.80
2014,06,23,12,50,15.80
2014,06,23,12,51,15.80
2014,06,23,12,52,15.90
2014,06,23,12,53,15.90
2014,06,23,12,54,15.90
2014,06,23,12,55,15.90
2014,06,23,12,56,16.00
2014,06,23,12,57,16.00
2014,06,23,12,58,16.00
2014,06,23,12,59,16.00
2014,06,23,13,00,16.00
2014,06,23,13,01,16.00
2014,06,23,13,02,15.90
2014,06,23,13,03,15.90
2014,06,23,13,04,15.90
2014,06,23,13,05,15.80
2014,06,23,13,06,15.80
2014,06,23,13,07,15.80
2014,06,23,13,08,15.70
2014,06,23,13,09,15.60
2014,06,23,13,10,15.60
2014,06,23,13,11,15.60
2014,06,23,13,12,15.50
2014,06,23,13,13,15.50
2014,06,23,13,14,15.50
2014,06,23,13,15,15.50
2014,06,23,13,16,15.50
2014,06,23,13,17,15.50
2014,06,23,13,18,15.50
2014,06,23,13,19,15.50
2014,06,23,13,20,15.50
2014,06,23,13,21,15.40
2014,06,23,13,22,15.40
2014,06,23,13,23,15.40
2014,06,23,13,24,15.40
2014,06,23,13,25,15.40
2014,06,23,13,26,15.40
2014,06,23,13,27,15.40
2014,06,23,13,28,15.40
2014,06,23,13,29,15.50
2014,06,23,13,30,15.50
2014,06,23,13,31,15.60
2014,06,23,13,32,15.60
2014,06,23,13,33,15.60
2014,06,23,13,34,15.60
2014,06,23,13,35,15.60
2014,06,23,13,36,15.60
2014,06,23,13,37,15.60
2014,06,23,13,38,15.60
2014,06,23,13,39,15.50
2014,06,23,13,40,15.60
2014,06,23,13,41,15.60
2014,06,23,13,42,15.50
2014,06,23,13,43,15.40
2014,06,23,13,44,15.40
2014,06,23,13,45,15.30
2014,06,23,13,46,15.30
2014,06,23,13,47,15.30
2014,06,23,13,48,15.30
2014,06,23,13,49,15.30
2014,06,23,13,50,15.30
2014,06,23,13,51,15.30
2014,06,23,13,52,15.30
2014,06,23,13,53,15.30
2014,06,23,13,54,15.30
2014,06,23,13,55,15.20
2014,06,23,13,56,15.20
2014,06,23,13,57,15.20
2014,06,23,13,58,15.20
2014,06,23,13,59,15.20
2014,06,23,14,00,15.20
2014,06,23,14,01,15.20
2014,06,23,14,02,15.30
2014,06,23,14,03,15.30
2014,06,23,14,04,15.40
2014,06,23,14,05,15.40
2014,06,23,14,06,15.50
2014,06,23,14,07,15.50
2014,06,23,14,08,15.50
2014,06,23,14,09,15.50
2014,06,23,14,10,15.50
2014,06,23,14,11,15.40
2014,06,23,14,12,15.40
2014,06,23,14,13,15.40
2014,06,23,14,14,15.30
2014,06,23,14,15,15.30
2014,06,23,14,16,15.30
2014,06,23,14,17,15.30
2014,06,23,14,18,15.30
2014,06,23,14,19,15.30
2014,06,23,14,20,15.20
2014,06,23,14,21,15.20
2014,06,23,14,22,15.10
2014,06,23,14,23,15.00
2014,06,23,14,24,15.00
2014,06,23,14,25,15.00
2014,06,23,14,26,15.00
2014,06,23,14,27,15.00
2014,06,23,14,28,15.00
2014,06,23,14,29,14.90
2014,06,23,14,30,14.90
2014,06,23,14,31,14.80
2014,06,23,14,32,14.80
2014,06,23,14,33,14.80
2014,06,23,14,34,14.80
2014,06,23,14,35,14.70
2014,06,23,14,36,14.70
2014,06,23,14,37,14.70
2014,06,23,14,38,14.70
2014,06,23,14,39,14.60
2014,06,23,14,40,14.50
2014,06,23,14,41,14.50
2014,06,23,14,42,14.40
2014,06,23,14,43,14.40
2014,06,23,14,44,14.40
2014,06,23,14,45,14.40
2014,06,23,14,46,14.40
2014,06,23,14,47,14.40
2014,06,23,14,48,14.40
2014,06,23,14,49,14.40
2014,06,23,14,50,14.40
2014,06,23,14,51,14.40
2014,06,23,14,52,14.40
2014,06,23,14,53,14.40
2014,06,23,14,54,14.40
2014,06,23,14,55,14.40
2014,06,23,14,56,14.40
2014,06,23,14,57,14.40
2014,06,23,14,58,14.40
2014,06,23,14,59,14.40
2014,06,23,15,00,14.40
2014,06,23,15,01,14.30
2014,06,23,15,02,14.30
2014,06,23,15,03,14.30
2014,06,23,15,04,14.30
2014,06,23,15,05,14.20
2014,06,23,15,06,14.20
2014,06,23,15,07,14.20
2014,06,23,15,08,14.20
2014,06,23,15,09,14.20
2014,06,23,15,10,14.30
2014,06,23,15,11,14.30
2014,06,23,15,12,14.40
2014,06,23,15,13,14.40
2014,06,23,15,14,14.40
2014,06,23,15,15,14.30
2014,06,23,15,16,14.30
2014,06,23,15,17,14.30
2014,06,23,15,18,14.20
2014,06,23,15,19,14.20
2014,06,23,15,20,14.20
2014,06,23,15,21,14.20
2014,06,23,15,22,14.20
2014,06,23,15,23,14.20
2014,06,23,15,24,14.20
2014,06,23,15,25,14.20
2014,06,23,15,26,14.20
2014,06,23,15,27,14.20
2014,06,23,15,28,14.20
2014,06,23,15,29,14.20
2014,06,23,15,30,14.20
2014,06,23,15,31,14.20
2014,06,23,15,32,14.20
2014,06,23,15,33,14.20
2014,06,23,15,34,14.20
2014,06,23,15,35,14.20
2014,06,23,15,36,14.20
2014,06,23,15,37,14.20
2014,06,23,15,38,14.20
2014,06,23,15,39,14.20
2014,06,23,15,40,14.10
2014,06,23,15,41,14.10
2014,06,23,15,42,14.10
2014,06,23,15,43,14.10
2014,06,23,15,44,14.10
2014,06,23,15,45,14.10
2014,06,23,15,46,14.10
2014,06,23,15,47,14.10
2014,06,23,15,48,14.10
2014,06,23,15,49,14.10
2014,06,23,15,50,14.10
2014,06,23,15,51,14.10
2014,06,23,15,52,14.10
2014,06,23,15,53,14.10
2014,06,23,15,54,14.00
2014,06,23,15,55,14.00
2014,06,23,15,56,14.00
2014,06,23,15,57,14.00
2014,06,23,15,58,14.00
2014,06,23,15,59,14.00
2014,06,23,16,00,14.00
2014,06,23,16,01,14.00
2014,06,23,16,02,14.00
2014,06,23,16,03,14.10
2014,06,23,16,04,14.10
2014,06,23,16,05,14.10
2014,06,23,16,06,14.10
2014,06,23,16,07,14.10
2014,06,23,16,08,14.10
2014,06,23,16,09,14.10
2014,06,23,16,10,14.00
2014,06,23,16,11,14.00
2014,06,23,16,12,14.10
2014,06,23,16,13,14.10
2014,06,23,16,14,14.10
2014,06,23,16,15,14.10
2014,06,23,16,16,14.10
2014,06,23,16,17,14.10
2014,06,23,16,18,14.10
2014,06,23,16,19,14.10
2014,06,23,16,20,14.10
2014,06,23,16,21,14.10
2014,06,23,16,22,14.10
2014,06,23,16,23,14.10
2014,06,23,16,24,14.20
2014,06,23,16,25,14.20
2014,06,23,16,26,14.20
2014,06,23,16,27,14.20
2014,06,23,16,28,14.20
2014,06,23,16,29,14.20
2014,06,23,16,30,14.20
2014,06,23,16,31,14.20
2014,06,23,16,32,14.20
2014,06,23,16,33,14.20
2014,06,23,16,34,14.20
2014,06,23,16,35,14.30
2014,06,23,16,36,14.30
2014,06,23,16,37,14.30
2014,06,23,16,38,14.30
2014,06,23,16,39,14.30
2014,06,23,16,40,14.30
2014,06,23,16,41,14.30
2014,06,23,16,42,14.30
2014,06,23,16,43,14.30
2014,06,23,16,44,14.30
2014,06,23,16,45,14.30
2014,06,23,16,46,14.20
2014,06,23,16,47,14.20
2014,06,23,16,48,14.20
2014,06,23,16,49,14.20
2014,06,23,16,50,14.20
2014,06,23,16,51,14.20
2014,06,23,16,52,14.20
2014,06,23,16,53,14.20
2014,06,23,16,54,14.20
2014,06,23,16,55,14.20
2014,06,23,16,56,14.20
2014,06,23,16,57,14.20
2014,06,23,16,58,14.20
2014,06,23,16,59,14.20
2014,06,23,17,00,14.20
2014,06,23,17,01,14.20
2014,06,23,17,02,14.20
2014,06,23,17,03,14.20
2014,06,23,17,04,14.20
2014,06,23,17,05,14.20
2014,06,23,17,06,14.20
2014,06,23,17,07,14.20
2014,06,23,17,08,14.20
2014,06,23,17,09,14.20
2014,06,23,17,10,14.20
2014,06,23,17,11,14.20
2014,06,23,17,12,14.20
2014,06,23,17,13,14.20
2014,06,23,17,14,14.10
2014,06,23,17,15,14.10
2014,06,23,17,16,14.10
2014,06,23,17,17,14.10
2014,06,23,17,18,14.10
2014,06,23,17,19,14.10
2014,06,23,17,20,14.00
2014,06,23,17,21,14.00
2014,06,23,17,22,14.00
2014,06,23,17,23,13.90
2014,06,23,17,24,13.90
2014,06,23,17,25,13.90
2014,06,23,17,26,13.90
2014,06,23,17,27,13.90
2014,06,23,17,28,13.90
2014,06,23,17,29,13.90
2014,06,23,17,30,13.90
2014,06,23,17,31,13.90
2014,06,23,17,32,13.90
2014,06,23,17,33,13.90
2014,06,23,17,34,13.90
2014,06,23,17,35,13.90
2014,06,23,17,36,13.90
2014,06,23,17,37,13.90
2014,06,23,17,38,13.90
2014,06,23,17,39,13.80